Year,Month,Day,Hour,Minute,Value (Times are PST for temperature in C)
2005,06,21,00,00,15.10
2005,06,21,00,01,15.20
2005,06,21,00,02,15.30
2005,06,21,00,03,15.30
2005,06,21,00,04,15.40
2005,06,21,00,05,15.50
2005,06,21,00,06,15.60
2005,06,21,00,07,15.60
2005,06,21,00,08,15.70
2005,06,21,00,09,15.80
2005,06,21,00,10,15.80
2005,06,21,00,11,15.80
2005,06,21,00,12,15.70
2005,06,21,00,13,15.60
2005,06,21,00,14,15.50
2005,06,21,00,15,15.40
2005,06,21,00,16,15.30
2005,06,21,00,17,15.20
2005,06,21,00,18,15.20
2005,06,21,00,19,15.10
2005,06,21,00,20,15.10
2005,06,21,00,21,15.10
2005,06,21,00,22,15.10
2005,06,21,00,23,15.10
2005,06,21,00,24,15.10
2005,06,21,00,25,15.10
2005,06,21,00,26,15.20
2005,06,21,00,27,15.30
2005,06,21,00,28,15.30
2005,06,21,00,29,15.30
2005,06,21,00,30,15.40
2005,06,21,00,31,15.50
2005,06,21,00,32,15.50
2005,06,21,00,33,15.60
2005,06,21,00,34,15.60
2005,06,21,00,35,15.60
2005,06,21,00,36,15.60
2005,06,21,00,37,15.70
2005,06,21,00,38,15.70
2005,06,21,00,39,15.80
2005,06,21,00,40,15.80
2005,06,21,00,41,15.80
2005,06,21,00,42,15.80
2005,06,21,00,43,15.80
2005,06,21,00,44,15.90
2005,06,21,00,45,16.00
2005,06,21,00,46,16.10
2005,06,21,00,47,16.10
2005,06,21,00,48,16.20
2005,06,21,00,49,16.30
2005,06,21,00,50,16.30
2005,06,21,00,51,16.40
2005,06,21,00,52,16.40
2005,06,21,00,53,16.40
2005,06,21,00,54,16.40
2005,06,21,00,55,16.50
2005,06,21,00,56,16.60
2005,06,21,00,57,16.50
2005,06,21,00,58,16.40
2005,06,21,00,59,16.40
2005,06,21,01,00,16.40
2005,06,21,01,01,16.40
2005,06,21,01,02,16.40
2005,06,21,01,03,16.40
2005,06,21,01,04,16.50
2005,06,21,01,05,16.60
2005,06,21,01,06,16.60
2005,06,21,01,07,16.60
2005,06,21,01,08,16.70
2005,06,21,01,09,16.70
2005,06,21,01,10,16.70
2005,06,21,01,11,16.70
2005,06,21,01,12,16.70
2005,06,21,01,13,16.80
2005,06,21,01,14,16.80
2005,06,21,01,15,16.90
2005,06,21,01,16,16.90
2005,06,21,01,17,16.90
2005,06,21,01,18,16.90
2005,06,21,01,19,16.70
2005,06,21,01,20,16.70
2005,06,21,01,21,16.60
2005,06,21,01,22,16.50
2005,06,21,01,23,16.40
2005,06,21,01,24,16.40
2005,06,21,01,25,16.30
2005,06,21,01,26,16.20
2005,06,21,01,27,16.20
2005,06,21,01,28,16.20
2005,06,21,01,29,16.10
2005,06,21,01,30,16.10
2005,06,21,01,31,16.10
2005,06,21,01,32,16.10
2005,06,21,01,33,16.20
2005,06,21,01,34,16.20
2005,06,21,01,35,16.20
2005,06,21,01,36,16.30
2005,06,21,01,37,16.30
2005,06,21,01,38,16.30
2005,06,21,01,39,16.30
2005,06,21,01,40,16.30
2005,06,21,01,41,16.30
2005,06,21,01,42,16.30
2005,06,21,01,43,16.30
2005,06,21,01,44,16.20
2005,06,21,01,45,16.20
2005,06,21,01,46,16.20
2005,06,21,01,47,16.20
2005,06,21,01,48,16.30
2005,06,21,01,49,16.30
2005,06,21,01,50,16.30
2005,06,21,01,51,16.30
2005,06,21,01,52,16.30
2005,06,21,01,53,16.30
2005,06,21,01,54,16.30
2005,06,21,01,55,16.30
2005,06,21,01,56,16.30
2005,06,21,01,57,16.20
2005,06,21,01,58,16.20
2005,06,21,01,59,16.10
2005,06,21,02,00,16.10
2005,06,21,02,01,16.10
2005,06,21,02,02,16.10
2005,06,21,02,03,16.10
2005,06,21,02,04,16.10
2005,06,21,02,05,16.10
2005,06,21,02,06,16.10
2005,06,21,02,07,16.10
2005,06,21,02,08,16.10
2005,06,21,02,09,15.90
2005,06,21,02,10,15.90
2005,06,21,02,11,15.90
2005,06,21,02,12,15.90
2005,06,21,02,13,15.90
2005,06,21,02,14,15.90
2005,06,21,02,15,15.80
2005,06,21,02,16,15.80
2005,06,21,02,17,15.80
2005,06,21,02,18,15.80
2005,06,21,02,19,15.70
2005,06,21,02,20,15.60
2005,06,21,02,21,15.60
2005,06,21,02,22,15.50
2005,06,21,02,23,15.50
2005,06,21,02,24,15.40
2005,06,21,02,25,15.30
2005,06,21,02,26,15.30
2005,06,21,02,27,15.10
2005,06,21,02,28,14.90
2005,06,21,02,29,14.80
2005,06,21,02,30,14.70
2005,06,21,02,31,14.60
2005,06,21,02,32,14.40
2005,06,21,02,33,14.20
2005,06,21,02,34,14.10
2005,06,21,02,35,14.00
2005,06,21,02,36,13.90
2005,06,21,02,37,13.90
2005,06,21,02,38,13.80
2005,06,21,02,39,13.80
2005,06,21,02,40,13.70
2005,06,21,02,41,13.70
2005,06,21,02,42,13.70
2005,06,21,02,43,13.70
2005,06,21,02,44,13.70
2005,06,21,02,45,13.70
2005,06,21,02,46,13.60
2005,06,21,02,47,13.60
2005,06,21,02,48,13.60
2005,06,21,02,49,13.60
2005,06,21,02,50,13.60
2005,06,21,02,51,13.60
2005,06,21,02,52,13.50
2005,06,21,02,53,13.50
2005,06,21,02,54,13.50
2005,06,21,02,55,13.50
2005,06,21,02,56,13.50
2005,06,21,02,57,13.50
2005,06,21,02,58,13.50
2005,06,21,02,59,13.60
2005,06,21,03,00,13.60
2005,06,21,03,01,13.60
2005,06,21,03,02,13.70
2005,06,21,03,03,13.70
2005,06,21,03,04,13.70
2005,06,21,03,05,13.70
2005,06,21,03,06,13.70
2005,06,21,03,07,13.80
2005,06,21,03,08,13.80
2005,06,21,03,09,13.80
2005,06,21,03,10,13.80
2005,06,21,03,11,13.80
2005,06,21,03,12,13.80
2005,06,21,03,13,13.70
2005,06,21,03,14,13.70
2005,06,21,03,15,13.70
2005,06,21,03,16,13.70
2005,06,21,03,17,13.70
2005,06,21,03,18,13.70
2005,06,21,03,19,13.70
2005,06,21,03,20,13.70
2005,06,21,03,21,13.70
2005,06,21,03,22,13.70
2005,06,21,03,23,13.70
2005,06,21,03,24,13.70
2005,06,21,03,25,13.70
2005,06,21,03,26,13.70
2005,06,21,03,27,13.70
2005,06,21,03,28,13.70
2005,06,21,03,29,13.80
2005,06,21,03,30,13.80
2005,06,21,03,31,13.90
2005,06,21,03,32,13.90
2005,06,21,03,33,14.00
2005,06,21,03,34,14.10
2005,06,21,03,35,14.10
2005,06,21,03,36,14.20
2005,06,21,03,37,14.20
2005,06,21,03,38,14.20
2005,06,21,03,39,14.20
2005,06,21,03,40,14.20
2005,06,21,03,41,14.20
2005,06,21,03,42,14.20
2005,06,21,03,43,14.20
2005,06,21,03,44,14.20
2005,06,21,03,45,14.20
2005,06,21,03,46,14.20
2005,06,21,03,47,14.20
2005,06,21,03,48,14.20
2005,06,21,03,49,14.20
2005,06,21,03,50,14.20
2005,06,21,03,51,14.20
2005,06,21,03,52,14.30
2005,06,21,03,53,14.40
2005,06,21,03,54,14.40
2005,06,21,03,55,14.40
2005,06,21,03,56,14.40
2005,06,21,03,57,14.40
2005,06,21,03,58,14.60
2005,06,21,03,59,14.60
2005,06,21,04,00,14.60
2005,06,21,04,01,14.70
2005,06,21,04,02,14.70
2005,06,21,04,03,14.70
2005,06,21,04,04,14.70
2005,06,21,04,05,14.70
2005,06,21,04,06,14.80
2005,06,21,04,07,14.80
2005,06,21,04,08,14.80
2005,06,21,04,09,14.80
2005,06,21,04,10,14.80
2005,06,21,04,11,14.80
2005,06,21,04,12,14.80
2005,06,21,04,13,14.80
2005,06,21,04,14,14.80
2005,06,21,04,15,14.90
2005,06,21,04,16,14.90
2005,06,21,04,17,14.90
2005,06,21,04,18,15.00
2005,06,21,04,19,15.10
2005,06,21,04,20,15.10
2005,06,21,04,21,15.20
2005,06,21,04,22,15.20
2005,06,21,04,23,15.30
2005,06,21,04,24,15.30
2005,06,21,04,25,15.30
2005,06,21,04,26,15.30
2005,06,21,04,27,15.30
2005,06,21,04,28,15.30
2005,06,21,04,29,15.30
2005,06,21,04,30,15.30
2005,06,21,04,31,15.30
2005,06,21,04,32,15.30
2005,06,21,04,33,15.20
2005,06,21,04,34,15.20
2005,06,21,04,35,15.20
2005,06,21,04,36,15.10
2005,06,21,04,37,15.10
2005,06,21,04,38,15.20
2005,06,21,04,39,15.20
2005,06,21,04,40,15.20
2005,06,21,04,41,15.20
2005,06,21,04,42,15.20
2005,06,21,04,43,15.20
2005,06,21,04,44,15.20
2005,06,21,04,45,15.30
2005,06,21,04,46,15.30
2005,06,21,04,47,15.30
2005,06,21,04,48,15.30
2005,06,21,04,49,15.30
2005,06,21,04,50,15.20
2005,06,21,04,51,15.10
2005,06,21,04,52,15.10
2005,06,21,04,53,15.10
2005,06,21,04,54,15.10
2005,06,21,04,55,15.00
2005,06,21,04,56,15.00
2005,06,21,04,57,15.00
2005,06,21,04,58,15.00
2005,06,21,04,59,15.00
2005,06,21,05,00,15.00
2005,06,21,05,01,15.00
2005,06,21,05,02,14.90
2005,06,21,05,03,14.90
2005,06,21,05,04,14.80
2005,06,21,05,05,14.80
2005,06,21,05,06,14.80
2005,06,21,05,07,14.70
2005,06,21,05,08,14.70
2005,06,21,05,09,14.70
2005,06,21,05,10,14.60
2005,06,21,05,11,14.60
2005,06,21,05,12,14.50
2005,06,21,05,13,14.40
2005,06,21,05,14,14.40
2005,06,21,05,15,14.40
2005,06,21,05,16,14.40
2005,06,21,05,17,14.40
2005,06,21,05,18,14.40
2005,06,21,05,19,14.40
2005,06,21,05,20,14.40
2005,06,21,05,21,14.40
2005,06,21,05,22,14.30
2005,06,21,05,23,14.30
2005,06,21,05,24,14.20
2005,06,21,05,25,14.20
2005,06,21,05,26,14.10
2005,06,21,05,27,14.00
2005,06,21,05,28,14.00
2005,06,21,05,29,13.90
2005,06,21,05,30,13.90
2005,06,21,05,31,13.80
2005,06,21,05,32,13.70
2005,06,21,05,33,13.70
2005,06,21,05,34,13.60
2005,06,21,05,35,13.60
2005,06,21,05,36,13.50
2005,06,21,05,37,13.50
2005,06,21,05,38,13.40
2005,06,21,05,39,13.30
2005,06,21,05,40,13.30
2005,06,21,05,41,13.30
2005,06,21,05,42,13.30
2005,06,21,05,43,13.20
2005,06,21,05,44,13.20
2005,06,21,05,45,13.20
2005,06,21,05,46,13.20
2005,06,21,05,47,13.10
2005,06,21,05,48,13.10
2005,06,21,05,49,13.10
2005,06,21,05,50,13.10
2005,06,21,05,51,13.10
2005,06,21,05,52,13.20
2005,06,21,05,53,13.20
2005,06,21,05,54,13.30
2005,06,21,05,55,13.30
2005,06,21,05,56,13.30
2005,06,21,05,57,13.40
2005,06,21,05,58,13.50
2005,06,21,05,59,13.60
2005,06,21,06,00,13.70
2005,06,21,06,01,13.70
2005,06,21,06,02,13.70
2005,06,21,06,03,13.80
2005,06,21,06,04,13.90
2005,06,21,06,05,14.00
2005,06,21,06,06,14.00
2005,06,21,06,07,14.10
2005,06,21,06,08,14.20
2005,06,21,06,09,14.30
2005,06,21,06,10,14.40
2005,06,21,06,11,14.50
2005,06,21,06,12,14.50
2005,06,21,06,13,14.60
2005,06,21,06,14,14.70
2005,06,21,06,15,14.80
2005,06,21,06,16,14.80
2005,06,21,06,17,14.90
2005,06,21,06,18,14.90
2005,06,21,06,19,14.90
2005,06,21,06,20,15.00
2005,06,21,06,21,15.00
2005,06,21,06,22,15.10
2005,06,21,06,23,15.10
2005,06,21,06,24,15.20
2005,06,21,06,25,15.30
2005,06,21,06,26,15.30
2005,06,21,06,27,15.40
2005,06,21,06,28,15.50
2005,06,21,06,29,15.50
2005,06,21,06,30,15.50
2005,06,21,06,31,15.60
2005,06,21,06,32,15.60
2005,06,21,06,33,15.60
2005,06,21,06,34,15.70
2005,06,21,06,35,15.70
2005,06,21,06,36,15.80
2005,06,21,06,37,15.80
2005,06,21,06,38,15.90
2005,06,21,06,39,16.00
2005,06,21,06,40,16.10
2005,06,21,06,41,16.10
2005,06,21,06,42,16.10
2005,06,21,06,43,16.10
2005,06,21,06,44,16.10
2005,06,21,06,45,16.10
2005,06,21,06,46,16.20
2005,06,21,06,47,16.20
2005,06,21,06,48,16.20
2005,06,21,06,49,16.20
2005,06,21,06,50,16.20
2005,06,21,06,51,16.20
2005,06,21,06,52,16.30
2005,06,21,06,53,16.30
2005,06,21,06,54,16.30
2005,06,21,06,55,16.30
2005,06,21,06,56,16.40
2005,06,21,06,57,16.40
2005,06,21,06,58,16.40
2005,06,21,06,59,16.40
2005,06,21,07,00,16.40
2005,06,21,07,01,16.40
2005,06,21,07,02,16.50
2005,06,21,07,03,16.60
2005,06,21,07,04,16.70
2005,06,21,07,05,16.70
2005,06,21,07,06,16.70
2005,06,21,07,07,16.80
2005,06,21,07,08,16.90
2005,06,21,07,09,17.00
2005,06,21,07,10,17.10
2005,06,21,07,11,17.20
2005,06,21,07,12,17.20
2005,06,21,07,13,17.30
2005,06,21,07,14,17.30
2005,06,21,07,15,17.30
2005,06,21,07,16,17.40
2005,06,21,07,17,17.40
2005,06,21,07,18,17.30
2005,06,21,07,19,17.20
2005,06,21,07,20,17.00
2005,06,21,07,21,16.80
2005,06,21,07,22,16.60
2005,06,21,07,23,16.60
2005,06,21,07,24,16.40
2005,06,21,07,25,16.30
2005,06,21,07,26,16.30
2005,06,21,07,27,16.30
2005,06,21,07,28,16.40
2005,06,21,07,29,16.40
2005,06,21,07,30,16.40
2005,06,21,07,31,16.50
2005,06,21,07,32,16.60
2005,06,21,07,33,16.60
2005,06,21,07,34,16.60
2005,06,21,07,35,16.60
2005,06,21,07,36,16.50
2005,06,21,07,37,16.40
2005,06,21,07,38,16.20
2005,06,21,07,39,16.10
2005,06,21,07,40,16.00
2005,06,21,07,41,15.80
2005,06,21,07,42,15.80
2005,06,21,07,43,15.80
2005,06,21,07,44,15.80
2005,06,21,07,45,15.80
2005,06,21,07,46,15.80
2005,06,21,07,47,15.80
2005,06,21,07,48,15.80
2005,06,21,07,49,15.80
2005,06,21,07,50,15.80
2005,06,21,07,51,15.90
2005,06,21,07,52,15.90
2005,06,21,07,53,16.00
2005,06,21,07,54,16.10
2005,06,21,07,55,16.10
2005,06,21,07,56,16.10
2005,06,21,07,57,16.20
2005,06,21,07,58,16.20
2005,06,21,07,59,16.20
2005,06,21,08,00,16.20
2005,06,21,08,01,16.20
2005,06,21,08,02,16.20
2005,06,21,08,03,16.20
2005,06,21,08,04,16.30
2005,06,21,08,05,16.40
2005,06,21,08,06,16.40
2005,06,21,08,07,16.50
2005,06,21,08,08,16.60
2005,06,21,08,09,16.60
2005,06,21,08,10,16.70
2005,06,21,08,11,16.70
2005,06,21,08,12,16.80
2005,06,21,08,13,16.80
2005,06,21,08,14,16.90
2005,06,21,08,15,16.90
2005,06,21,08,16,16.90
2005,06,21,08,17,17.00
2005,06,21,08,18,16.90
2005,06,21,08,19,16.90
2005,06,21,08,20,16.90
2005,06,21,08,21,16.80
2005,06,21,08,22,16.80
2005,06,21,08,23,16.70
2005,06,21,08,24,16.60
2005,06,21,08,25,16.40
2005,06,21,08,26,16.40
2005,06,21,08,27,16.40
2005,06,21,08,28,16.40
2005,06,21,08,29,16.40
2005,06,21,08,30,16.40
2005,06,21,08,31,16.30
2005,06,21,08,32,16.30
2005,06,21,08,33,16.30
2005,06,21,08,34,16.20
2005,06,21,08,35,16.20
2005,06,21,08,36,16.20
2005,06,21,08,37,16.20
2005,06,21,08,38,16.20
2005,06,21,08,39,16.20
2005,06,21,08,40,16.20
2005,06,21,08,41,16.20
2005,06,21,08,42,16.20
2005,06,21,08,43,16.20
2005,06,21,08,44,16.30
2005,06,21,08,45,16.30
2005,06,21,08,46,16.30
2005,06,21,08,47,16.40
2005,06,21,08,48,16.40
2005,06,21,08,49,16.50
2005,06,21,08,50,16.60
2005,06,21,08,51,16.70
2005,06,21,08,52,16.70
2005,06,21,08,53,16.80
2005,06,21,08,54,16.90
2005,06,21,08,55,16.90
2005,06,21,08,56,16.90
2005,06,21,08,57,16.90
2005,06,21,08,58,16.90
2005,06,21,08,59,16.90
2005,06,21,09,00,16.80
2005,06,21,09,01,16.70
2005,06,21,09,02,16.60
2005,06,21,09,03,16.40
2005,06,21,09,04,16.40
2005,06,21,09,05,16.40
2005,06,21,09,06,16.40
2005,06,21,09,07,16.40
2005,06,21,09,15,16.60
2005,06,21,09,16,16.70
2005,06,21,09,17,16.70
2005,06,21,09,18,16.80
2005,06,21,09,19,16.90
2005,06,21,09,20,17.00
2005,06,21,09,21,17.10
2005,06,21,09,22,17.30
2005,06,21,09,23,17.40
2005,06,21,09,24,17.50
2005,06,21,09,25,17.60
2005,06,21,09,26,17.80
2005,06,21,09,27,17.90
2005,06,21,09,28,18.10
2005,06,21,09,29,18.30
2005,06,21,09,30,18.40
2005,06,21,09,31,18.60
2005,06,21,09,32,18.70
2005,06,21,09,33,18.80
2005,06,21,09,34,18.90
2005,06,21,09,35,18.90
2005,06,21,09,36,18.90
2005,06,21,09,37,18.90
2005,06,21,09,38,18.90
2005,06,21,09,39,18.70
2005,06,21,09,40,18.70
2005,06,21,09,41,18.70
2005,06,21,09,42,18.60
2005,06,21,09,43,18.60
2005,06,21,09,44,18.50
2005,06,21,09,45,18.50
2005,06,21,09,46,18.40
2005,06,21,09,47,18.40
2005,06,21,09,48,18.40
2005,06,21,09,49,18.30
2005,06,21,09,50,18.30
2005,06,21,09,51,18.30
2005,06,21,09,52,18.30
2005,06,21,09,53,18.30
2005,06,21,09,54,18.30
2005,06,21,09,55,18.30
2005,06,21,09,56,18.30
2005,06,21,09,57,18.40
2005,06,21,09,58,18.40
2005,06,21,09,59,18.40
2005,06,21,10,00,18.50
2005,06,21,10,01,18.60
2005,06,21,10,02,18.70
2005,06,21,10,03,18.90
2005,06,21,10,04,19.00
2005,06,21,10,05,19.10
2005,06,21,10,06,19.20
2005,06,21,10,07,19.30
2005,06,21,10,08,19.40
2005,06,21,10,09,19.40
2005,06,21,10,10,19.50
2005,06,21,10,11,19.40
2005,06,21,10,12,19.40
2005,06,21,10,13,19.30
2005,06,21,10,14,19.20
2005,06,21,10,15,19.00
2005,06,21,10,16,18.80
2005,06,21,10,17,18.40
2005,06,21,10,18,18.10
2005,06,21,10,19,17.90
2005,06,21,10,20,17.70
2005,06,21,10,21,17.60
2005,06,21,10,22,17.60
2005,06,21,10,23,17.70
2005,06,21,10,24,17.80
2005,06,21,10,25,17.80
2005,06,21,10,26,17.80
2005,06,21,10,27,17.80
2005,06,21,10,28,17.80
2005,06,21,10,29,17.90
2005,06,21,10,30,17.80
2005,06,21,10,31,17.70
2005,06,21,10,32,17.50
2005,06,21,10,33,17.40
2005,06,21,10,34,17.30
2005,06,21,10,35,17.00
2005,06,21,10,36,16.90
2005,06,21,10,37,16.70
2005,06,21,10,38,16.70
2005,06,21,10,39,16.70
2005,06,21,10,40,16.70
2005,06,21,10,41,16.80
2005,06,21,10,42,16.90
2005,06,21,10,43,16.90
2005,06,21,10,44,17.00
2005,06,21,10,45,17.00
2005,06,21,10,46,17.10
2005,06,21,10,47,17.10
2005,06,21,10,48,17.20
2005,06,21,10,49,17.20
2005,06,21,10,50,17.20
2005,06,21,10,51,17.20
2005,06,21,10,52,17.30
2005,06,21,10,53,17.40
2005,06,21,10,54,17.50
2005,06,21,10,55,17.60
2005,06,21,10,56,17.70
2005,06,21,10,57,17.90
2005,06,21,10,58,18.00
2005,06,21,10,59,18.10
2005,06,21,11,00,18.20
2005,06,21,11,01,18.20
2005,06,21,11,02,18.20
2005,06,21,11,03,18.20
2005,06,21,11,04,18.30
2005,06,21,11,05,18.40
2005,06,21,11,06,18.50
2005,06,21,11,07,18.60
2005,06,21,11,08,18.70
2005,06,21,11,09,18.70
2005,06,21,11,10,18.70
2005,06,21,11,11,18.60
2005,06,21,11,12,18.60
2005,06,21,11,13,18.50
2005,06,21,11,14,18.50
2005,06,21,11,15,18.40
2005,06,21,11,16,18.30
2005,06,21,11,17,18.30
2005,06,21,11,18,18.20
2005,06,21,11,19,18.30
2005,06,21,11,20,18.30
2005,06,21,11,21,18.20
2005,06,21,11,22,18.20
2005,06,21,11,23,18.10
2005,06,21,11,24,18.00
2005,06,21,11,25,17.90
2005,06,21,11,26,17.90
2005,06,21,11,27,17.80
2005,06,21,11,28,17.70
2005,06,21,11,29,17.70
2005,06,21,11,30,17.80
2005,06,21,11,31,17.80
2005,06,21,11,32,17.90
2005,06,21,11,33,17.90
2005,06,21,11,34,17.90
2005,06,21,11,35,17.90
2005,06,21,11,36,18.00
2005,06,21,11,37,18.10
2005,06,21,11,38,18.00
2005,06,21,11,39,17.90
2005,06,21,11,40,17.90
2005,06,21,11,41,18.00
2005,06,21,11,42,18.10
2005,06,21,11,43,18.10
2005,06,21,11,44,18.10
2005,06,21,11,45,18.30
2005,06,21,11,46,18.40
2005,06,21,11,47,18.50
2005,06,21,11,48,18.70
2005,06,21,11,49,18.80
2005,06,21,11,50,18.90
2005,06,21,11,51,19.10
2005,06,21,11,52,19.20
2005,06,21,11,53,19.30
2005,06,21,11,54,19.40
2005,06,21,11,55,19.50
2005,06,21,11,56,19.60
2005,06,21,11,57,19.70
2005,06,21,11,58,19.80
2005,06,21,11,59,19.70
2005,06,21,12,00,19.70
2005,06,21,12,01,19.60
2005,06,21,12,02,19.60
2005,06,21,12,03,19.60
2005,06,21,12,04,19.50
2005,06,21,12,05,19.40
2005,06,21,12,06,19.30
2005,06,21,12,07,19.20
2005,06,21,12,08,19.10
2005,06,21,12,09,19.10
2005,06,21,12,10,19.10
2005,06,21,12,11,19.10
2005,06,21,12,12,19.10
2005,06,21,12,13,19.00
2005,06,21,12,14,18.90
2005,06,21,12,15,18.90
2005,06,21,12,16,18.90
2005,06,21,12,17,18.90
2005,06,21,12,18,18.80
2005,06,21,12,19,18.70
2005,06,21,12,20,18.70
2005,06,21,12,21,18.60
2005,06,21,12,22,18.50
2005,06,21,12,23,18.40
2005,06,21,12,24,18.30
2005,06,21,12,25,18.30
2005,06,21,12,26,18.20
2005,06,21,12,27,18.20
2005,06,21,12,28,18.10
2005,06,21,12,29,18.10
2005,06,21,12,30,18.20
2005,06,21,12,31,18.20
2005,06,21,12,32,18.20
2005,06,21,12,33,18.30
2005,06,21,12,34,18.40
2005,06,21,12,35,18.50
2005,06,21,12,36,18.50
2005,06,21,12,37,18.40
2005,06,21,12,38,18.40
2005,06,21,12,39,18.30
2005,06,21,12,40,18.20
2005,06,21,12,41,17.90
2005,06,21,12,42,17.80
2005,06,21,12,43,17.60
2005,06,21,12,44,17.50
2005,06,21,12,45,17.50
2005,06,21,12,46,17.40
2005,06,21,12,47,17.40
2005,06,21,12,48,17.40
2005,06,21,12,49,17.50
2005,06,21,12,50,17.50
2005,06,21,12,51,17.50
2005,06,21,12,52,17.40
2005,06,21,12,53,17.30
2005,06,21,12,54,17.30
2005,06,21,12,55,17.20
2005,06,21,12,56,17.10
2005,06,21,12,57,17.00
2005,06,21,12,58,16.80
2005,06,21,12,59,16.70
2005,06,21,13,00,16.50
2005,06,21,13,01,16.20
2005,06,21,13,02,16.10
2005,06,21,13,03,15.90
2005,06,21,13,04,15.80
2005,06,21,13,05,15.70
2005,06,21,13,06,15.60
2005,06,21,13,07,15.60
2005,06,21,13,08,15.70
2005,06,21,13,09,15.80
2005,06,21,13,10,15.80
2005,06,21,13,11,15.90
2005,06,21,13,12,15.90
2005,06,21,13,13,16.00
2005,06,21,13,14,15.90
2005,06,21,13,15,15.90
2005,06,21,13,16,15.80
2005,06,21,13,17,15.80
2005,06,21,13,18,15.80
2005,06,21,13,19,15.60
2005,06,21,13,20,15.50
2005,06,21,13,21,15.30
2005,06,21,13,22,15.30
2005,06,21,13,23,15.40
2005,06,21,13,24,15.50
2005,06,21,13,25,15.60
2005,06,21,13,26,15.80
2005,06,21,13,27,16.00
2005,06,21,13,28,16.20
2005,06,21,13,29,16.40
2005,06,21,13,30,16.60
2005,06,21,13,31,16.80
2005,06,21,13,32,17.00
2005,06,21,13,33,17.30
2005,06,21,13,34,17.50
2005,06,21,13,35,17.70
2005,06,21,13,36,17.90
2005,06,21,13,37,18.00
2005,06,21,13,38,18.10
2005,06,21,13,39,18.30
2005,06,21,13,40,18.50
2005,06,21,13,41,18.60
2005,06,21,13,42,18.80
2005,06,21,13,43,18.90
2005,06,21,13,44,19.10
2005,06,21,13,45,19.20
2005,06,21,13,46,19.20
2005,06,21,13,47,19.30
2005,06,21,13,48,19.20
2005,06,21,13,49,19.00
2005,06,21,13,50,18.90
2005,06,21,13,51,18.90
2005,06,21,13,52,18.90
2005,06,21,13,53,18.80
2005,06,21,13,54,18.80
2005,06,21,13,55,18.80
2005,06,21,13,56,18.80
2005,06,21,13,57,18.90
2005,06,21,13,58,18.90
2005,06,21,13,59,18.60
2005,06,21,14,00,18.20
2005,06,21,14,01,17.80
2005,06,21,14,02,17.60
2005,06,21,14,03,17.40
2005,06,21,14,04,17.30
2005,06,21,14,05,17.40
2005,06,21,14,06,17.50
2005,06,21,14,07,17.60
2005,06,21,14,08,17.70
2005,06,21,14,09,17.90
2005,06,21,14,10,18.00
2005,06,21,14,11,18.20
2005,06,21,14,12,18.40
2005,06,21,14,13,18.60
2005,06,21,14,14,18.80
2005,06,21,14,15,19.10
2005,06,21,14,16,19.30
2005,06,21,14,17,19.60
2005,06,21,14,18,19.70
2005,06,21,14,19,19.90
2005,06,21,14,20,20.10
2005,06,21,14,21,20.30
2005,06,21,14,22,20.50
2005,06,21,14,23,20.60
2005,06,21,14,24,20.60
2005,06,21,14,25,20.30
2005,06,21,14,26,19.70
2005,06,21,14,27,19.00
2005,06,21,14,28,18.60
2005,06,21,14,29,18.30
2005,06,21,14,30,17.60
2005,06,21,14,31,17.30
2005,06,21,14,32,17.00
2005,06,21,14,33,17.00
2005,06,21,14,34,17.00
2005,06,21,14,35,17.00
2005,06,21,14,36,16.90
2005,06,21,14,37,16.90
2005,06,21,14,38,16.80
2005,06,21,14,39,16.80
2005,06,21,14,40,16.80
2005,06,21,14,41,16.80
2005,06,21,14,42,16.90
2005,06,21,14,43,16.90
2005,06,21,14,44,17.00
2005,06,21,14,45,17.00
2005,06,21,14,46,17.00
2005,06,21,14,47,17.00
2005,06,21,14,48,17.10
2005,06,21,14,49,17.20
2005,06,21,14,50,17.20
2005,06,21,14,51,17.20
2005,06,21,14,52,17.20
2005,06,21,14,53,17.30
2005,06,21,14,54,17.40
2005,06,21,14,55,17.50
2005,06,21,14,56,17.40
2005,06,21,14,57,17.40
2005,06,21,14,58,17.30
2005,06,21,14,59,17.30
2005,06,21,15,00,17.40
2005,06,21,15,01,17.50
2005,06,21,15,02,17.60
2005,06,21,15,03,17.70
2005,06,21,15,04,17.70
2005,06,21,15,05,17.60
2005,06,21,15,06,17.60
2005,06,21,15,07,17.60
2005,06,21,15,08,17.50
2005,06,21,15,09,17.50
2005,06,21,15,10,17.50
2005,06,21,15,11,17.50
2005,06,21,15,12,17.60
2005,06,21,15,13,17.60
2005,06,21,15,14,17.80
2005,06,21,15,15,18.00
2005,06,21,15,16,18.20
2005,06,21,15,17,18.40
2005,06,21,15,18,18.50
2005,06,21,15,19,18.70
2005,06,21,15,20,18.90
2005,06,21,15,21,19.00
2005,06,21,15,22,19.20
2005,06,21,15,23,19.40
2005,06,21,15,24,19.50
2005,06,21,15,25,19.70
2005,06,21,15,26,19.80
2005,06,21,15,27,19.90
2005,06,21,15,28,20.00
2005,06,21,15,29,20.10
2005,06,21,15,30,20.20
2005,06,21,15,31,20.20
2005,06,21,15,32,20.20
2005,06,21,15,33,20.20
2005,06,21,15,34,20.20
2005,06,21,15,35,20.20
2005,06,21,15,36,20.10
2005,06,21,15,37,20.00
2005,06,21,15,38,19.90
2005,06,21,15,39,20.00
2005,06,21,15,40,20.10
2005,06,21,15,41,20.10
2005,06,21,15,42,20.20
2005,06,21,15,43,20.20
2005,06,21,15,44,20.20
2005,06,21,15,45,20.20
2005,06,21,15,46,20.20
2005,06,21,15,47,20.10
2005,06,21,15,48,20.10
2005,06,21,15,49,20.00
2005,06,21,15,50,19.80
2005,06,21,15,51,19.70
2005,06,21,15,52,19.60
2005,06,21,15,53,19.40
2005,06,21,15,54,19.30
2005,06,21,15,55,19.10
2005,06,21,15,56,19.00
2005,06,21,15,57,18.90
2005,06,21,15,58,18.80
2005,06,21,15,59,18.70
2005,06,21,16,00,18.50
2005,06,21,16,01,18.20
2005,06,21,16,02,18.00
2005,06,21,16,03,17.90
2005,06,21,16,04,17.90
2005,06,21,16,05,17.90
2005,06,21,16,06,17.90
2005,06,21,16,07,17.80
2005,06,21,16,08,17.70
2005,06,21,16,09,17.70
2005,06,21,16,10,17.60
2005,06,21,16,11,17.60
2005,06,21,16,12,17.60
2005,06,21,16,13,17.50
2005,06,21,16,14,17.30
2005,06,21,16,15,17.20
2005,06,21,16,16,17.20
2005,06,21,16,17,17.30
2005,06,21,16,18,17.40
2005,06,21,16,19,17.50
2005,06,21,16,20,17.50
2005,06,21,16,21,17.60
2005,06,21,16,22,17.60
2005,06,21,16,23,17.70
2005,06,21,16,24,17.90
2005,06,21,16,25,17.90
2005,06,21,16,26,18.20
2005,06,21,16,27,18.20
2005,06,21,16,28,18.20
2005,06,21,16,29,18.10
2005,06,21,16,30,18.10
2005,06,21,16,31,17.90
2005,06,21,16,32,17.80
2005,06,21,16,33,17.70
2005,06,21,16,34,17.50
2005,06,21,16,35,17.40
2005,06,21,16,36,17.40
2005,06,21,16,37,17.30
2005,06,21,16,38,17.20
2005,06,21,16,39,17.10
2005,06,21,16,40,17.00
2005,06,21,16,41,17.00
2005,06,21,16,42,17.00
2005,06,21,16,43,17.10
2005,06,21,16,44,17.10
2005,06,21,16,45,17.10
2005,06,21,16,46,17.10
2005,06,21,16,47,17.10
2005,06,21,16,48,17.10
2005,06,21,16,49,17.00
2005,06,21,16,50,17.00
2005,06,21,16,51,17.00
2005,06,21,16,52,16.90
2005,06,21,16,53,16.80
2005,06,21,16,54,16.80
2005,06,21,16,55,16.70
2005,06,21,16,56,16.70
2005,06,21,16,57,16.60
2005,06,21,16,58,16.50
2005,06,21,16,59,16.40
2005,06,21,17,00,16.40
2005,06,21,17,01,16.30
2005,06,21,17,02,16.20
2005,06,21,17,03,16.10
2005,06,21,17,04,16.10
2005,06,21,17,05,16.00
2005,06,21,17,06,15.90
2005,06,21,17,07,15.90
2005,06,21,17,08,15.80
2005,06,21,17,09,15.80
2005,06,21,17,10,15.80
2005,06,21,17,11,15.80
2005,06,21,17,12,15.80
2005,06,21,17,13,15.80
2005,06,21,17,14,15.80
2005,06,21,17,15,15.80
2005,06,21,17,16,15.80
2005,06,21,17,17,15.80
2005,06,21,17,18,15.80
2005,06,21,17,19,15.80
2005,06,21,17,20,15.80
2005,06,21,17,21,15.80
2005,06,21,17,22,15.80
2005,06,21,17,23,15.80
2005,06,21,17,24,15.80
2005,06,21,17,25,15.80
2005,06,21,17,26,15.90